Regional Weather Roundup
Issued by NWS

Home | Current Version | Previous Version | Text Only | Print | Product List | Glossary On
Versions: 1 2 3 4 5 6 7 8 9 10 11 12 13 14 15 16 17 18 19 20 21 22 23 24 25 26 27 28 29 30 31 32 33 34 35 36 37 38 39 40 41 42 43 44 45 46 47 48 49 50
000
ASUS43 KDMX 261501
RWRIA

WEATHER ROUNDUP FOR IOWA
NATIONAL WEATHER SERVICE DES MOINES IA
1000 AM CDT FRI MAY 26 2017

NOTE: "FAIR" INDICATES FEW OR NO CLOUDS BELOW 12,000 FEET WITH NO
SIGNIFICANT WEATHER AND/OR OBSTRUCTIONS TO VISIBILITY.

* - THESE STATIONS ARE NOT NWS STATIONS...THUS NOT UNDER NWS
QUALITY CONTROL.  THEY ALSO DO NOT REPORT WEATHER SUCH
AS PRECIPITATION OR FOG.

IAZ001>003-012>014-020>022-031>034-043>046-261600-
   NORTHWEST IOWA

CITY           SKY/WX    TMP DP  RH WIND       PRES   REMARKS
CARROLL *      CLOUDY    64  57  77 S6        29.75R
CHEROKEE *     CLOUDY    64  58  78 NW6       29.77R
DENISON *      PTSUNNY   66  57  72 NW8       29.78R
LE MARS *      PTSUNNY   64  52  63 N12G18    29.79R
ORANGE CITY *  MOSUNNY   64  54  68 N13G18    29.78R
SHELDON *      CLOUDY    64  52  63 NW16      29.76R
SIOUX CITY     CLOUDY    63  51  65 NW16      29.79R
SPENCER        CLOUDY    65  55  70 SW5       29.76R
STORM LAKE *   CLOUDY    66  55  68 SW6       29.77R
$$

IAZ055>058-069>071-079>083-090>094-261600-
   SOUTHWEST IOWA

CITY           SKY/WX    TMP DP  RH WIND       PRES   REMARKS
ATLANTIC *     PTSUNNY   68  57  68 VRB5      29.75R
AUDUBON *      CLOUDY    66  59  77 CALM      29.76R
CLARINDA *     SUNNY     72  63  73 NW7       29.77R
COUNCIL BLFS * MOSUNNY   70  61  73 NW12G17   29.75S
CRESTON *      PTSUNNY   66  61  82 VRB3      29.74S
HARLAN  *      PTSUNNY   68  59  73 NW5       29.78S
LAMONI         SUNNY     69  63  81 CALM      29.73R
RED OAK *      SUNNY     72  59  64 NW10      29.74S
SHENANDOAH *   SUNNY     72  59  64 VRB5      29.75R
$$

IAZ047>049-059>061-072>074-084-261600-
   CENTRAL IOWA

CITY           SKY/WX    TMP DP  RH WIND       PRES   REMARKS
AMES           CLOUDY    62  55  77 CALM      29.75R
ANKENY *       CLOUDY    61  57  88 CALM      29.75S
BOONE *        CLOUDY    64  57  77 SE6       29.74S
CHARITON *     CLOUDY    61  59  94 N5        29.72F
DES MOINES     CLOUDY    64  59  83 VRB3      29.73F
GRINNELL*      RAIN      58  55  91 SE5       29.78R
KNOXVILLE *    CLOUDY    59  57  94 N5        29.72F
MARSHALLTOWN   CLOUDY    61  56  83 SE6       29.75R
NEWTON *       CLOUDY    59  57  94 SE7       29.74F
PELLA *        LGT RAIN  57  56  97 CALM      29.74F
PERRY *          N/A     64  57  79 SE3       29.73F
$$

IAZ004>006-015-016-023>025-035-036-261600-
   NORTH CENTRAL IOWA

CITY           SKY/WX    TMP DP  RH WIND       PRES   REMARKS
ALGONA *       CLOUDY    63  55  77 S9        29.77R
CLARION *      CLOUDY    64  57  77 S7        29.75S
ESTHERVILLE    PTSUNNY   64  58  80 S9        29.75R
FORT DODGE *   PTSUNNY   63  55  77 CALM      29.76R
MASON CITY     CLOUDY    61  54  77 S7        29.78R
FOREST CITY *  PTSUNNY   61  50  67 SE5       29.76S
WEBSTER CITY * CLOUDY    63  55  77 SE6       29.73S
IOWA FALLS *     N/A     64  55  75 SE6       29.77R
$$

IAZ007>011-017>019-026>030-037>042-050>054-066-261600-
   NORTHEAST IOWA

CITY           SKY/WX    TMP DP  RH WIND       PRES   REMARKS
CEDAR RAPIDS   LGT RAIN  61  58  90 E7        29.74S
CHARLES CITY * LGT RAIN  61  57  88 S5        29.79R
CLINTON *      LGT RAIN  65  58  78 SE15      29.77S
DECORAH *      CLOUDY    64  55  72 VRB5      29.77R
DUBUQUE        CLOUDY    62  56  80 SE10      29.78S
MONTICELLO *   CLOUDY    64  55  72 SE7       29.76R
OELWEIN *      CLOUDY    61  57  88 SE8       29.77R
WATERLOO       CLOUDY    62  54  74 SE6       29.77R
$$

IAZ064-065-067-068-078-261600-
   EAST CENTRAL IOWA

CITY           SKY/WX    TMP DP  RH WIND       PRES   REMARKS
DAVENPORT      CLOUDY    68  55  63 SE14G22   29.75S
IOWA CITY      CLOUDY    66  54  65 E12       29.74F
MT. PLEASANT * PTSUNNY   67  57  71 SE8       29.72F
MUSCATINE *    PTSUNNY   66  54  63 SE7       29.74S
QUAD CITIES    CLOUDY    69  55  60 E13G22    29.73S
$$

IAZ062-063-075>077-085>089-095>099-261600-
   SOUTHEAST IOWA

CITY           SKY/WX    TMP DP  RH WIND       PRES   REMARKS
BURLINGTON     PTSUNNY   65  59  81 SW9       29.74R
FAIRFIELD *    CLOUDY    59  57  94 NW8       29.76R FOG
FORT MADISON * CLOUDY    66  61  82 S8        29.74F
KEOKUK *       MOSUNNY   66  61  82 S10       29.72F
OSKALOOSA *    RAIN      58  56  95 CALM      29.75S
OTTUMWA        RAIN      60  59  96 N3        29.74S FOG
WASHINGTON *   CLOUDY    63  57  82 SW8       29.76R
$$

ABBREVIATIONS USED IN REMARKS
   TC - TEMPERATURES IN CELSIUS
  WCI - WIND CHILL INDEX
   HX - HEAT INDEX
  VSB - VISIBILITY
$$





USA.gov is the U.S. government's official web portal to all federal, state and local government web resources and services.